Location: Maccacari
(45.1333°N, 11.1333°E)
Time: 08:24:07
(UTC+00:00)

Okean-O - Pass Details

Date: 18 September 2020
Orbit: 638 x 641 km, 98.2° (Epoch: 29 October)

Event Time Altitude Azimuth Distance (km) Brightness Sun altitude
Rises 18:05:15 0° 181° (S) 2,932 5.9 -8.7°
Reaches altitude 10° 18:07:31 10° 187° (S) 2,028 5.2 -9.1°
Maximum altitude 18:11:46 46° 261° (W) 869 3.9 -9.9°
Drops below altitude 10° 18:16:03 10° 335° (NNW) 2,044 5.8 -10.6°
Sets 18:18:21 0° 341° (NNW) 2,958 6.5 -11.0°
